星链-32151 (STARLINK-32151)

导读 | 星芒AI

STARLINK-32151 是 SpaceX Starlink 卫星互联网项目中的一颗低轨卫星,属于第二批部署的星链卫星群。该卫星于2021年发射,运行在约550公里高度的近地轨道,旨在为全球用户提供高速互联网服务。它采用可展开的太阳能板供电,并具备自主变轨和避障能力。作为星链计划的一部分,STARLINK-32151 有助于扩大网络覆盖范围,提升连接速度与稳定性,特别是在偏远和网络基础设施薄弱的地区。

基本信息
目录编号:
60299
目录名称:
STARLINK-32151
国际标识:
2024-132X
轨道中心:
EARTH
卫星名称:
星链-32151 (STARLINK-32151)
卫星全名:
星链-32151 (STARLINK-32151)
卫星状态:
在轨 (已飞行463 天)
发射日期:
2024-07-28 UTC
国别 :
美国 (US)
星等 :
--
轨道信息
数据来源 国际轨道数据 AOE轨道数据
星历时间 2025-11-02T12:10:32+0800
1天前
查看轨道信息
2025-10-30T22:00:00+0800
3天前
查看轨道信息
半长轴 6853.456km 6853.345km
偏心率 0.000106 0.0001364
轨道倾角 53.161° 53.159°
近地点辐角 123.568° 98.797°
升交点赤经 256.286° 268.319°
平近点角 236.542° 22.355°
近地点 474.594km 474.275km
远地点 476.048km 476.145km
周期 94.107分钟 94.105分钟
每日圈数 15.301654 15.302025
详细信息
卫星平台:
Starlink v2.0 mini
运营商:
太空探索技术公司
运营商所在国:
美国
制造商(研发单位):
太空探索技术公司
制造商所在国:
美国
使用方式:
暂无
卫星简介
星链(Starlink)计划是由太空探索技术公司(SpaceX)提出的一个巨型低轨卫星互联网星座项目,计划在2019年至2024年间在太空搭建由约1.2万颗卫星组成的“星链”网络,其中1584颗将部署在地球上空550千米处的近地轨道,并从2020年开始工作。该卫星仍在工作。
2D轨道图
3D轨道图
轨道高度分析图
轨道倾角分析图
轨道综合分析图
查看轨道综合分析图